Lancaster, PA

12:40 AM EDT on May 30, 2017 (GMT -0400)
Lancaster

Weather History for KLNS - February, 2012

Change the Weather History Date:

Wednesday, February 29, 2012

  Actual Average Record
Temperature  
Mean Temperature 37 °F -  
Max Temperature 43 °F - 60 °F (2004)
Min Temperature 32 °F - 7 °F (1980)
Degree Days  
Heating Degree Days 28    
Moisture  
Dew Point 37 °F    
Average Humidity 90    
Maximum Humidity 97    
Minimum Humidity 67    
Precipitation  
Precipitation 1.42 in - - ()
Sea Level Pressure  
Sea Level Pressure 29.94 in    
Wind  
Wind Speed 7 mph (East)    
Max Wind Speed 14 mph    
Max Gust Speed -    
Visibility 4 miles    
Events Rain    
Averages and records for this station are not official NWS values.
T = Trace of Precipitation, MM = Missing Value Source: NWS Daily Summary

Daily Weather History Graph

Daily Weather History Graph

Search for Another Location

Airport or City:

Trip Planner

Search our weather history database for the weather conditions in past years. The results will help you decide how hot, cold, wet, or windy it might be!

Date:

Astronomy

Feb. 29, 2012 Rise Set
Actual Time 6:39 AM EST 5:56 PM EST
Civil Twilight 6:12 AM EST 6:23 PM EST
Nautical Twilight 5:40 AM EST 6:55 PM EST
Astronomical Twilight 5:09 AM EST 7:26 PM EST
Moon 10:28 AM EST (2/29) 12:41 AM EST (2/29)
Length of Visible Light 12h 11m
Length of Day
11h 16m
Waxing Crescent, 47% of the Moon is Illuminated
Feb 29
Waxing Crescent
Feb 29
First Quarter
Mar 8
Full
Mar 14
Last Quarter
Mar 22
New

Hourly Weather History & Observations

Time (EST) Temp. Windchill Dew Point Humidity Pressure Visibility Wind Dir Wind Speed Gust Speed Precip Events Conditions
12:53 AM 35.1 °F 31.0 °F 27.0 °F 72% 30.33 in 7.0 mi ENE 4.6 mph - N/A   Clear
1:53 AM 36.0 °F 33.3 °F 26.1 °F 67% 30.30 in 8.0 mi East 3.5 mph - N/A   Clear
2:53 AM 32.0 °F 26.4 °F 26.1 °F 79% 30.27 in 6.0 mi East 5.8 mph - N/A   Haze
3:53 AM 33.1 °F 26.9 °F 26.1 °F 75% 30.25 in 7.0 mi East 6.9 mph - N/A   Clear
4:53 AM 34.0 °F 28.8 °F 27.0 °F 75% 30.24 in 8.0 mi ENE 5.8 mph - N/A   Clear
5:53 AM 35.1 °F 29.3 °F 27.0 °F 72% 30.21 in 8.0 mi East 6.9 mph - N/A   Mostly Cloudy
6:53 AM 35.1 °F 30.1 °F 28.9 °F 78% 30.19 in 6.0 mi East 5.8 mph - N/A   Haze
7:53 AM 37.9 °F 32.1 °F 32.0 °F 79% 30.17 in 6.0 mi East 8.1 mph - N/A   Haze
8:53 AM 37.9 °F 32.1 °F 34.0 °F 86% 30.16 in 3.0 mi ESE 8.1 mph - 0.01 in Rain Light Rain
9:18 AM 37.4 °F 31.4 °F 33.8 °F 87% 30.13 in 2.5 mi East 8.1 mph - 0.02 in Rain Rain
9:29 AM 37.4 °F 31.4 °F 35.6 °F 93% 30.13 in 1.8 mi East 8.1 mph - 0.04 in Rain Rain
9:53 AM 37.9 °F 32.1 °F 35.1 °F 89% 30.12 in 1.5 mi East 8.1 mph - 0.11 in Rain Rain
10:28 AM 37.4 °F 29.8 °F 35.6 °F 93% 30.06 in 1.2 mi East 11.5 mph - 0.17 in Rain Heavy Rain
10:42 AM 39.2 °F 32.5 °F 37.4 °F 93% 30.06 in 1.2 mi ESE 10.4 mph - 0.25 in Rain Heavy Rain
10:53 AM 39.0 °F 32.8 °F 37.0 °F 93% 30.06 in 1.2 mi ESE 9.2 mph - 0.31 in Rain Heavy Rain
11:05 AM 39.2 °F 31.6 °F 37.4 °F 93% 30.02 in 1.5 mi ESE 12.7 mph - 0.05 in Rain Heavy Rain
11:53 AM 41.0 °F 36.4 °F 39.0 °F 93% 30.04 in 1.5 mi ENE 6.9 mph - 0.21 in Rain Heavy Rain
12:53 PM 41.0 °F 34.7 °F 39.0 °F 93% 29.95 in 2.5 mi East 10.4 mph - 0.23 in Rain Light Rain
1:07 PM 41.0 °F 35.8 °F 39.2 °F 93% 29.94 in 1.2 mi East 8.1 mph - 0.01 in Rain Light Rain
1:17 PM 41.0 °F 35.8 °F 39.2 °F 93% 29.94 in 1.2 mi East 8.1 mph - 0.03 in Rain Light Rain
1:31 PM 41.0 °F 35.8 °F 39.2 °F 93% 29.93 in 2.5 mi ENE 8.1 mph - 0.03 in   Overcast
1:40 PM 41.0 °F 35.8 °F 39.2 °F 93% 29.93 in 3.0 mi East 8.1 mph - 0.03 in   Overcast
1:53 PM 41.0 °F 35.2 °F 39.9 °F 96% 29.93 in 3.0 mi East 9.2 mph - 0.03 in Rain Light Rain
2:00 PM 41.0 °F 36.4 °F 39.2 °F 93% 29.92 in 2.5 mi East 6.9 mph - 0.01 in Rain Light Rain
2:11 PM 41.0 °F 36.4 °F 39.2 °F 93% 29.92 in 4.0 mi East 6.9 mph - 0.01 in Rain Light Rain
2:21 PM 41.0 °F 34.7 °F 39.2 °F 93% 29.95 in 4.0 mi NE 10.4 mph - 0.01 in Rain Light Rain
2:31 PM 41.0 °F 35.2 °F 39.2 °F 93% 29.91 in 1.8 mi East 9.2 mph - 0.05 in Rain Heavy Rain
2:38 PM 42.8 °F 37.0 °F 39.2 °F 87% 29.90 in 2.0 mi East 10.4 mph - 0.06 in Rain Light Rain
2:48 PM 41.0 °F 35.2 °F 39.2 °F 93% 29.91 in 2.0 mi NE 9.2 mph - 0.06 in Rain Light Rain
2:53 PM 41.0 °F 35.8 °F 39.0 °F 93% 29.91 in 3.0 mi ENE 8.1 mph - 0.08 in Rain Rain
3:00 PM 41.0 °F 35.8 °F 39.2 °F 93% 29.90 in 2.5 mi NE 8.1 mph - 0.01 in Rain Light Rain
3:09 PM 41.0 °F 36.4 °F 39.2 °F 93% 29.88 in 4.0 mi East 6.9 mph - 0.01 in Rain Light Rain
3:53 PM 42.1 °F 37.7 °F 39.9 °F 92% 29.88 in 6.0 mi East 6.9 mph - 0.01 in   Overcast
4:53 PM 42.1 °F 37.7 °F 39.9 °F 92% 29.85 in 10.0 mi East 6.9 mph - N/A   Overcast
5:53 PM 42.1 °F 37.7 °F 39.9 °F 92% 29.85 in 9.0 mi East 6.9 mph - N/A   Overcast
6:50 PM 42.8 °F 39.3 °F 39.2 °F 87% 29.86 in 3.0 mi NE 5.8 mph - 0.00 in Rain Light Rain
7:06 PM 42.8 °F 40.1 °F 41.0 °F 93% 29.88 in 2.5 mi NE 4.6 mph - 0.02 in Rain Rain
7:27 PM 42.8 °F 38.0 °F 39.2 °F 87% 29.80 in 1.5 mi SE 8.1 mph - 0.06 in Rain Rain
7:42 PM 42.8 °F 35.8 °F 39.2 °F 87% 29.77 in 2.5 mi SSE 13.8 mph - 0.09 in Rain Rain
7:53 PM 42.1 °F 38.4 °F 41.0 °F 96% 29.81 in 3.0 mi SE 5.8 mph - 0.11 in Rain Rain
8:07 PM 42.8 °F 37.5 °F 41.0 °F 93% 29.77 in 2.5 mi East 9.2 mph - 0.03 in Rain Rain
8:28 PM 42.8 °F 37.0 °F 41.0 °F 93% 29.73 in 3.0 mi East 10.4 mph - 0.06 in Rain Light Rain
8:53 PM 42.1 °F 36.6 °F 41.0 °F 96% 29.74 in 4.0 mi East 9.2 mph - 0.06 in   Overcast
9:10 PM 42.8 °F 39.3 °F 41.0 °F 93% 29.76 in 5.0 mi NE 5.8 mph - N/A   Overcast
10:22 PM 42.8 °F 38.6 °F 39.2 °F 87% 29.74 in 2.0 mi ESE 6.9 mph - 0.09 in Rain Heavy Rain
10:30 PM 42.8 °F 38.0 °F 41.0 °F 93% 29.72 in 1.5 mi ESE 8.1 mph - 0.17 in Rain Heavy Rain
10:36 PM 42.8 °F 37.5 °F 41.0 °F 93% 29.72 in 1.5 mi ESE 9.2 mph - 0.20 in Rain Heavy Rain
10:49 PM 42.8 °F 39.3 °F 41.0 °F 93% 29.71 in 1.8 mi East 5.8 mph - 0.26 in Rain Heavy Rain
10:53 PM 42.1 °F 37.7 °F 41.0 °F 96% 29.71 in 2.0 mi East 6.9 mph - 0.26 in Rain Light Rain
11:03 PM 42.8 °F 40.1 °F 41.0 °F 93% 29.71 in 3.0 mi ENE 4.6 mph - 0.00 in Rain Light Rain
11:28 PM 42.8 °F 39.3 °F 41.0 °F 93% 29.68 in 2.5 mi East 5.8 mph - 0.00 in Rain Light Rain
11:53 PM 43.0 °F 38.8 °F 42.1 °F 97% 29.66 in 3.0 mi East 6.9 mph - 0.00 in   Overcast